Temp
73 71 70 71 71 70 69 69 70 70 69 70 68 69 69 67 66 61 59 61 64 66 71 70 69 72 72 72 72 72 72 74 75 73 74 73 71 72 72 72 72 72 72 72 73 73 74 73 74 75 76 76 76 76 76 75 75 75 75 75 75 75 75 73 72 72 72 72 72 72 72 72 73 73
73 73 72 71 70 72 70 70 70 69 69 68 69 68 68 67 68 64 63 64 63 64 65 71 70 68 72 72 72 72 72 75 76 73 73 73 72 72 72 72 72 72 72 71 71 72 72 73 73 73 73 73 74 75 75 75 75 75 74 75 75 75 74 73 72 72 72 71 72 71 72 72 72 72
73 72 72 72 71 72 72 71 71 70 70 68 68 67 68 68 69 68 64 63 64 67 69 69 72 70 70 73 73 72 72 74 76 74 73 73 73 73 72 72 72 71 71 71 70 70 70 70 71 71 71 71 72 73 74 74 74 74 74 74 74 74 74 73 72 72 72 72 71 71 71 71 71 71
74 73 73 73 72 72 71 72 72 70 70 70 68 68 68 67 67 67 65 66 70 66 67 67 68 70 70 70 71 72 72 74 76 73 73 73 75 74 72 73 71 71 70 70 70 69 68 68 70 70 71 71 72 73 73 72 73 73 73 73 73 73 73 71 71 71 71 71 71 70 70 70 70 70
74 73 73 74 73 73 72 72 72 72 71 70 70 69 67 67 67 67 66 66 68 68 65 67 68 68 69 69 69 71 71 71 72 75 73 73 73 72 72 72 73 71 70 69 69 69 69 69 69 70 71 71 72 73 73 72 71 71 71 71 70 70 71 70 69 70 70 70 70 70 70 70 70 69
75 74 73 74 74 73 73 73 72 72 72 71 70 68 69 68 68 67 68 67 67 70 67 67 67 67 68 70 67 70 71 71 71 71 72 73 72 72 72 72 72 73 71 69 68 68 68 68 69 69 70 70 71 71 71 71 70 69 69 68 68 68 67 68 68 69 69 69 70 70 70 69 69 69
74 74 73 74 74 74 72 73 73 73 72 72 71 71 70 69 69 68 68 68 67 68 69 67 68 68 68 69 70 69 71 72 71 70 71 72 72 73 73 72 73 73 71 69 68 68 68 68 68 68 69 70 69 69 69 68 68 67 67 66 67 67 66 66 67 68 68 68 69 70 69 69 69 68
74 74 74 74 75 74 73 73 73 73 73 71 71 70 70 70 70 69 68 68 69 68 68 66 68 68 68 68 68 69 69 70 70 71 72 71 72 72 72 72 72 73 71 70 69 68 68 68 68 67 68 68 67 66 66 66 66 65 65 65 65 65 65 64 65 67 66 66 67 68 69 69 68 65
75 75 74 75 75 74 73 73 73 73 72 73 72 71 71 70 70 70 69 69 68 68 68 70 67 67 68 68 67 68 69 68 68 69 69 71 71 71 72 73 74 73 71 70 69 68 68 68 68 67 67 67 66 66 65 65 65 65 64 64 64 64 64 64 63 64 64 64 64 64 65 66 66 65
76 76 75 76 75 74 73 74 74 73 73 73 72 72 72 72 70 69 68 69 68 67 69 69 71 65 68 67 67 67 68 69 68 67 68 68 69 69 70 71 74 74 74 73 72 69 68 68 67 67 67 67 66 65 65 64 64 63 63 61 61 63 63 63 63 62 62 63 63 64 63 64 64 64
77 77 77 76 76 75 75 75 74 74 73 73 73 73 73 73 70 69 69 68 68 68 68 69 69 69 68 67 69 67 67 68 69 69 67 67 69 69 69 70 72 73 73 73 73 72 72 71 69 65 64 65 65 65 65 64 63 62 61 60 59 60 60 61 62 62 61 61 62 61 60 61 63 64
78 78 77 77 77 76 76 76 76 75 74 73 72 73 73 72 70 70 69 68 68 68 68 68 69 68 68 65 66 66 65 65 66 67 68 68 69 68 68 70 71 72 71 71 72 72 71 70 69 66 65 65 66 65 65 66 65 64 62 61 62 61 60 60 60 61 60 59 59 59 59 58 60 62
77 78 78 78 78 78 75 73 72 73 73 75 72 73 72 72 70 70 69 69 68 68 68 68 68 67 66 66 66 67 65 66 70 67 67 68 70 69 68 70 70 71 69 70 71 71 71 70 70 69 68 67 67 66 66 67 67 65 62 61 62 62 61 60 60 60 60 59 59 58 58 58 59 61
77 78 78 79 76 71 70 69 68 67 67 69 74 76 73 72 71 71 70 69 69 68 68 68 69 67 67 69 68 69 70 70 69 68 66 66 69 65 67 69 69 69 70 69 68 70 72 71 70 69 68 70 70 67 66 66 67 66 63 62 62 62 62 60 60 60 59 59 58 58 57 57 59 59
77 77 77 78 78 74 70 71 67 66 66 66 66 68 71 72 74 72 70 70 70 69 69 70 69 68 69 70 71 70 71 70 70 70 68 67 67 66 65 66 69 69 71 68 69 70 71 70 69 69 69 70 68 68 67 67 67 65 64 63 62 62 62 62 61 60 59 58 58 58 57 57 58 58
77 77 77 78 78 78 78 77 75 71 66 65 65 65 65 67 67 69 74 73 71 70 69 69 70 70 70 71 71 71 71 71 70 69 69 68 67 67 66 67 68 69 70 69 67 68 71 69 69 69 70 70 70 70 68 66 66 65 64 63 63 62 62 62 63 62 61 60 59 60 59 59 59 58
77 77 77 77 78 78 73 75 77 77 76 67 63 63 64 64 64 64 65 67 75 76 71 71 71 72 72 71 72 74 73 73 70 69 68 68 68 69 68 69 70 68 69 69 67 67 71 67 68 68 71 71 70 71 68 67 66 65 64 64 64 63 62 62 62 62 62 60 60 60 59 58 58 57
77 77 77 76 77 78 78 77 77 77 76 77 75 71 69 70 70 65 63 62 63 67 74 74 73 75 75 73 75 76 74 72 71 71 70 71 70 69 69 72 72 69 69 70 68 66 69 67 68 68 71 72 71 70 69 66 65 65 64 64 63 63 62 62 62 62 62 61 60 59 58 57 57 57
78 78 78 78 77 78 77 78 77 77 76 76 76 76 75 74 73 74 74 72 71 71 72 73 75 77 77 76 77 77 77 75 75 76 75 74 74 73 73 71 70 68 69 71 69 67 72 69 67 69 71 71 71 72 67 65 65 65 64 63 63 63 62 62 62 61 61 61 59 58 57 56 55 55
79 79 78 78 78 78 77 74 68 71 77 77 76 75 76 76 77 77 72 70 71 75 76 75 76 77 78 74 78 78 79 77 76 76 77 75 73 70 69 69 70 69 68 70 70 69 71 69 68 70 71 70 70 71 70 66 64 64 63 63 63 62 61 61 61 61 60 60 59 58 56 55 54 53
79 79 79 78 79 78 78 73 66 65 67 76 76 76 76 76 77 77 77 68 65 65 65 65 67 67 67 67 67 66 67 73 76 76 73 72 73 69 68 69 68 65 66 69 72 71 70 71 67 68 70 69 69 69 69 70 64 63 62 62 62 61 60 60 60 60 60 60 59 59 58 55 54 54
79 80 77 79 79 78 79 70 65 64 67 73 75 76 75 75 75 76 78 79 73 63 63 63 64 65 66 66 66 66 65 64 66 73 71 75 73 69 69 67 67 67 69 70 72 68 69 71 66 67 65 64 66 69 69 69 68 64 61 60 61 60 60 60 59 60 59 59 59 58 57 55 54 56
78 79 78 75 74 76 75 67 64 63 66 74 75 75 76 75 75 77 78 78 77 75 71 70 69 69 67 69 71 72 65 64 66 70 73 74 72 68 67 66 66 65 68 73 74 67 69 68 66 66 61 61 64 66 68 69 69 67 66 64 63 60 60 60 59 58 58 58 58 58 56 55 55 58
77 78 78 76 66 63 63 63 61 60 59 72 76 76 75 75 75 79 78 78 78 78 77 77 74 73 75 75 75 74 74 74 73 72 72 74 73 70 67 68 67 67 70 74 73 68 68 68 66 67 66 64 63 64 66 67 69 67 66 66 65 62 61 61 59 57 57 57 57 57 56 55 56 58
76 77 77 78 70 63 60 59 57 56 56 58 70 75 76 77 78 72 75 77 74 75 75 75 75 74 73 72 73 74 74 74 75 74 73 74 73 70 68 67 68 69 72 74 69 70 67 67 66 65 65 66 68 63 64 67 67 67 67 67 66 66 63 63 62 62 57 55 55 55 55 55 55 59
76 76 78 77 72 63 59 57 55 54 54 55 62 68 62 61 60 64 69 69 70 71 72 72 72 72 71 71 73 73 74 75 75 76 76 73 72 72 71 70 70 69 70 74 65 70 68 67 67 65 65 64 66 66 60 61 65 66 67 67 68 66 65 64 63 63 62 60 59 56 57 55 55 56
77 78 77 78 67 58 53 52 52 53 53 54 60 56 55 57 58 60 65 67 68 69 69 70 70 71 70 70 70 71 72 74 75 75 75 75 75 73 73 74 75 75 77 77 71 72 70 67 69 66 65 66 64 63 63 62 60 62 63 64 66 66 66 65 63 64 63 62 63 57 54 54 54 55
77 77 73 63 51 52 51 52 53 53 53 60 56 54 54 54 56 62 64 65 66 67 67 67 68 69 70 70 69 70 72 73 74 74 75 75 76 75 75 74 74 75 76 77 75 73 71 69 68 69 69 66 64 63 61 62 61 61 62 63 64 65 64 64 64 65 64 63 62 61 59 58 56 55
66 58 54 53 53 54 53 53 53 54 55 53 52 52 52 57 62 63 64 65 66 66 66 67 67 68 68 69 70 72 72 72 72 71 72 73 74 75 75 75 74 74 74 75 75 74 71 71 69 69 68 67 65 64 63 62 61 60 63 61 59 61 62 64 64 63 61 61 61 61 61 62 59 58
56 56 56 57 58 59 60 64 67 67 65 58 56 56 58 63 63 64 64 65 65 65 66 66 66 66 67 68 69 70 70 69 69 70 70 71 71 72 71 70 70 72 73 74 73 72 72 71 70 69 67 67 66 65 65 63 60 61 62 62 62 62 62 62 63 63 62 61 60 61 61 62 62 59
63 62 63 61 57 58 57 59 58 60 61 63 64 65 65 65 64 63 62 63 63 63 63 63 64 65 66 67 67 67 67 68 69 70 68 68 68 68 69 67 67 68 70 72 73 72 72 71 71 70 67 66 65 66 66 65 61 59 61 62 62 58 57 60 61 61 61 61 60 60 60 59 59 62
64 65 62 60 64 64 64 63 64 64 64 64 62 62 61 60 61 63 62 62 62 61 62 63 63 64 64 64 65 66 66 67 67 68 67 67 67 67 67 66 65 67 68 69 70 71 72 71 70 70 70 68 65 65 66 64 62 60 60 61 62 61 60 59 59 59 59 59 58 58 58 58 58 59
63 63 63 62 62 62 62 63 62 62 61 60 60 59 60 60 59 59 58 59 60 60 60 61 62 62 63 63 64 64 65 65 66 68 66 67 65 66 65 64 64 65 65 66 68 69 69 69 70 70 69 69 69 68 65 61 61 60 59 58 58 57 58 59 59 58 58 57 58 58 57 56 58 59
62 62 61 61 61 60 60 60 59 59 58 59 60 60 59 60 60 60 60 60 60 61 61 62 62 62 63 62 63 63 63 64 65 65 63 64 65 63 63 63 63 65 65 65 66 67 68 68 68 68 68 68 66 66 66 63 59 59 59 58 57 56 56 57 57 58 59 60 59 57 57 57 56 56
62 61 61 60 59 58 57 58 59 60 58 59 59 60 61 61 61 60 60 60 60 62 63 62 63 62 62 62 62 62 62 62 63 64 64 64 64 63 63 62 63 64 64 65 65 67 67 66 66 62 59 59 59 59 63 63 60 58 57 57 57 56 55 57 57 58 59 58 60 59 57 57 57 56
60 60 60 59 60 60 59 60 61 61 61 61 61 61 61 61 62 61 62 62 63 63 63 62 62 62 62 62 62 62 61 60 61 62 62 62 62 62 63 63 63 64 64 64 65 66 66 66 65 61 58 57 57 55 56 60 62 59 57 56 56 56 55 56 57 58 58 57 58 58 57 57 57 57
59 58 59 60 60 60 60 61 61 62 62 62 62 62 62 62 62 63 63 63 63 62 62 62 62 62 62 61 61 60 61 61 61 61 61 62 62 62 62 62 62 63 63 64 64 65 65 64 63 61 59 58 57 55 54 57 57 59 59 56 55 56 55 55 56 55 56 57 56 58 57 56 56 57
60 59 59 60 60 61 62 62 62 62 62 62 62 62 62 62 63 63 64 63 62 62 62 62 61 61 61 61 61 61 61 61 60 60 60 60 60 60 62 62 62 63 63 64 64 64 64 64 62 61 60 58 55 53 53 55 57 56 57 58 56 56 56 55 54 54 54 55 58 56 53 54 56 59
59 58 58 58 59 61 62 62 62 62 62 62 62 62 62 62 62 62 62 62 62 62 61 61 61 61 60 61 60 60 60 60 59 59 59 59 59 60 61 62 62 62 62 61 59 60 61 61 61 60 59 58 56 55 55 55 54 56 56 56 57 56 55 55 54 55 54 54 54 54 54 54 54 56
59 59 59 57 57 58 60 61 62 62 62 62 62 62 62 62 62 62 61 61 61 61 61 61 60 59 60 60 60 60 59 59 59 59 59 59 58 58 58 58 58 58 58 57 57 57 57 58 59 57 56 56 57 58 58 57 56 57 56 56 55 57 56 56 55 55 55 56 55 55 54 52 52 50
57 57 59 58 56 56 58 60 62 62 62 62 62 60 62 61 61 61 61 60 60 60 60 60 60 60 59 59 59 58 58 58 58 58 59 58 58 57 57 57 57 57 56 56 56 56 56 57 60 60 61 59 59 59 57 55 53 54 54 55 53 55 56 58 59 58 56 55 56 56 55 54 51 50
57 57 57 56 57 57 59 60 61 62 62 62 62 61 61 61 61 58 60 60 60 60 60 59 59 58 58 58 58 58 58 57 57 57 58 58 58 58 57 57 57 57 57 56 56 56 58 60 61 60 59 59 58 56 54 54 53 54 54 54 55 54 55 56 57 58 60 58 56 52 49 49 49 50
58 57 58 57 57 59 61 62 62 61 61 61 61 61 60 60 60 60 59 59 59 59 58 58 58 58 58 58 58 57 58 57 57 57 57 57 58 57 57 57 57 57 57 56 57 57 58 59 59 58 58 57 56 56 53 54 54 53 53 54 54 55 55 55 53 54 57 58 60 60 59 54 51 49
57 58 57 58 58 59 59 60 60 61 61 61 60 60 60 59 59 59 58 58 58 57 57 57 57 57 57 57 57 57 57 57 57 56 56 56 57 57 57 57 57 58 57 57 56 56 57 57 57 57 56 55 55 54 54 54 54 54 54 53 54 55 55 55 55 55 55 57 57 55 57 57 57 57
58 58 59 60 59 58 57 57 59 60 60 60 59 59 59 58 58 58 57 57 57 57 57 57 56 56 56 57 56 56 57 55 56 56 56 56 56 56 56 57 57 57 56 56 56 56 56 56 56 56 56 55 55 55 55 55 53 53 53 53 53 55 55 56 55 55 55 56 54 53 54 55 55 55
MSLP
1019.15 1019.31 1019.31 1019.39 1019.39 1019.43 1019.47 1019.59 1019.67 1019.75 1019.87 1019.91 1020.03 1020.23 1020.71 1021.19 1022.03 1022.39 1022.19 1021.51 1021.31 1020.31 1020.11 1020.47 1019.67 1019.43 1019.55 1019.71 1019.67 1019.83 1019.87 1019.79 1019.87 1020.03 1020.07 1020.15 1020.23 1020.19 1020.23 1020.35 1020.43 1020.47 1020.51 1020.55 1020.59 1020.63 1020.71 1020.79 1020.87 1020.95 1020.99 1021.03 1021.11 1021.15 1021.23 1021.31 1021.35 1021.39 1021.43 1021.47 1021.47 1021.47 1021.47 1021.47 1021.43 1021.43 1021.43 1021.39 1021.35 1021.31 1021.27 1021.23 1021.19 1021.15
1019.03 1019.11 1019.19 1019.27 1019.35 1019.19 1019.35 1019.43 1019.43 1019.59 1019.71 1019.91 1019.99 1020.19 1020.31 1020.55 1021.27 1021.59 1022.11 1021.55 1020.71 1020.35 1019.95 1019.83 1019.67 1019.39 1019.47 1019.43 1019.59 1019.63 1019.63 1019.51 1019.67 1019.83 1019.87 1019.91 1019.91 1019.91 1019.99 1020.07 1020.15 1020.27 1020.31 1020.35 1020.43 1020.47 1020.51 1020.59 1020.67 1020.75 1020.83 1020.87 1020.87 1020.95 1020.99 1021.07 1021.15 1021.19 1021.27 1021.31 1021.31 1021.31 1021.31 1021.31 1021.31 1021.31 1021.31 1021.31 1021.27 1021.23 1021.15 1021.11 1021.11 1021.11
1018.87 1019.07 1019.19 1019.11 1019.19 1019.03 1019.15 1019.19 1019.27 1019.39 1019.59 1019.75 1019.91 1020.07 1020.19 1020.47 1020.55 1020.99 1021.31 1021.99 1020.23 1019.95 1019.99 1019.55 1019.19 1019.23 1019.19 1019.19 1019.27 1019.39 1019.35 1019.35 1019.43 1019.59 1019.67 1019.63 1019.59 1019.67 1019.79 1019.83 1019.87 1019.95 1020.03 1020.11 1020.19 1020.27 1020.31 1020.39 1020.47 1020.55 1020.59 1020.63 1020.67 1020.71 1020.75 1020.79 1020.87 1020.95 1021.03 1021.11 1021.15 1021.15 1021.15 1021.15 1021.19 1021.19 1021.19 1021.19 1021.19 1021.19 1021.15 1021.11 1021.11 1021.11
1018.71 1018.87 1018.99 1018.95 1018.99 1018.87 1018.99 1019.07 1019.07 1019.23 1019.39 1019.55 1019.79 1019.91 1020.07 1020.19 1020.39 1020.59 1020.99 1021.35 1020.51 1019.67 1019.51 1019.39 1019.23 1019.07 1019.19 1019.19 1019.43 1019.35 1019.23 1019.11 1019.23 1019.35 1019.39 1019.31 1019.39 1019.55 1019.59 1019.55 1019.59 1019.63 1019.75 1019.79 1019.91 1019.99 1020.07 1020.15 1020.23 1020.31 1020.35 1020.35 1020.39 1020.39 1020.47 1020.55 1020.63 1020.71 1020.75 1020.79 1020.87 1020.91 1020.91 1020.99 1021.03 1021.03 1021.07 1021.11 1021.11 1021.15 1021.11 1021.07 1021.03 1021.03
1018.51 1018.63 1018.71 1018.63 1018.55 1018.59 1018.91 1018.87 1018.91 1019.03 1019.15 1019.39 1019.59 1019.71 1019.87 1020.07 1020.23 1020.59 1020.91 1021.15 1020.63 1019.71 1019.31 1019.39 1019.23 1019.03 1019.11 1019.39 1019.15 1019.35 1019.27 1019.23 1019.15 1019.07 1019.07 1019.15 1019.27 1019.27 1019.27 1019.23 1019.19 1019.27 1019.35 1019.47 1019.55 1019.67 1019.75 1019.83 1019.91 1019.95 1019.99 1020.03 1020.07 1020.07 1020.15 1020.23 1020.31 1020.39 1020.43 1020.47 1020.51 1020.59 1020.63 1020.75 1020.79 1020.83 1020.91 1020.99 1021.03 1021.03 1021.03 1020.99 1020.95 1020.95
1018.27 1018.35 1018.55 1018.47 1018.39 1018.39 1018.67 1018.67 1018.83 1018.79 1018.99 1019.23 1019.51 1019.63 1019.75 1019.91 1020.07 1020.11 1020.55 1020.71 1020.83 1020.23 1019.47 1019.35 1019.11 1019.23 1019.03 1019.39 1018.91 1019.15 1019.19 1019.11 1019.03 1019.11 1018.95 1018.87 1018.87 1018.95 1018.91 1018.99 1018.91 1018.83 1018.91 1019.07 1019.19 1019.27 1019.39 1019.47 1019.55 1019.59 1019.63 1019.67 1019.71 1019.75 1019.79 1019.87 1019.95 1020.03 1020.07 1020.11 1020.19 1020.27 1020.35 1020.51 1020.59 1020.63 1020.71 1020.79 1020.87 1020.91 1020.91 1020.91 1020.91 1020.91
1017.99 1018.31 1018.39 1018.23 1018.15 1018.27 1018.55 1018.47 1018.47 1018.51 1018.83 1018.95 1019.27 1019.31 1019.35 1019.59 1019.67 1019.87 1019.99 1020.31 1020.51 1020.27 1019.71 1019.23 1019.31 1019.11 1019.03 1019.11 1018.83 1018.75 1018.71 1018.59 1018.67 1018.91 1018.83 1018.71 1018.59 1018.51 1018.51 1018.59 1018.47 1018.39 1018.51 1018.63 1018.75 1018.87 1018.95 1019.03 1019.11 1019.19 1019.27 1019.27 1019.35 1019.39 1019.47 1019.59 1019.67 1019.75 1019.79 1019.83 1019.91 1019.99 1020.15 1020.27 1020.39 1020.43 1020.51 1020.63 1020.67 1020.71 1020.75 1020.79 1020.79 1020.79
1017.87 1017.99 1018.19 1017.99 1017.91 1018.07 1018.39 1018.27 1018.31 1018.35 1018.55 1018.83 1018.95 1019.07 1019.07 1019.23 1019.35 1019.43 1019.71 1019.79 1019.95 1019.83 1020.03 1019.19 1019.23 1018.83 1019.03 1018.83 1018.63 1018.59 1018.59 1018.71 1018.71 1018.59 1018.39 1018.35 1018.47 1018.31 1018.27 1018.27 1018.19 1017.99 1018.07 1018.19 1018.31 1018.39 1018.47 1018.59 1018.67 1018.75 1018.83 1018.91 1018.99 1019.11 1019.23 1019.31 1019.43 1019.51 1019.55 1019.63 1019.71 1019.83 1019.95 1020.11 1020.19 1020.27 1020.35 1020.47 1020.51 1020.55 1020.59 1020.67 1020.71 1020.71
1017.47 1017.67 1017.79 1017.47 1017.67 1017.91 1018.27 1018.07 1018.19 1018.19 1018.47 1018.51 1018.71 1018.83 1018.79 1018.99 1018.99 1019.15 1019.27 1019.43 1019.55 1019.75 1019.79 1019.19 1018.75 1018.63 1018.63 1018.51 1018.51 1018.43 1018.67 1018.59 1018.55 1018.43 1018.43 1018.19 1018.11 1018.07 1017.91 1017.87 1017.71 1017.67 1017.71 1017.83 1017.91 1017.95 1018.07 1018.15 1018.23 1018.31 1018.39 1018.47 1018.59 1018.75 1018.87 1018.99 1019.11 1019.19 1019.27 1019.39 1019.47 1019.59 1019.75 1019.87 1020.03 1020.11 1020.19 1020.31 1020.39 1020.47 1020.51 1020.51 1020.59 1020.67
1016.99 1017.19 1017.19 1017.15 1017.39 1017.67 1017.91 1017.79 1017.71 1017.91 1018.19 1018.31 1018.51 1018.55 1018.47 1018.51 1018.71 1019.03 1019.11 1019.11 1019.23 1019.43 1019.27 1019.19 1018.95 1018.67 1018.75 1018.63 1018.43 1018.15 1018.27 1018.47 1018.55 1018.43 1018.15 1018.03 1017.91 1017.95 1017.91 1017.63 1017.39 1017.35 1017.43 1017.55 1017.55 1017.63 1017.71 1017.75 1017.79 1017.87 1017.95 1017.99 1018.11 1018.27 1018.43 1018.51 1018.67 1018.79 1018.91 1019.03 1019.19 1019.27 1019.43 1019.55 1019.75 1019.91 1020.03 1020.15 1020.23 1020.31 1020.39 1020.43 1020.47 1020.55
1016.51 1016.59 1016.71 1016.87 1017.03 1017.27 1017.27 1017.35 1017.39 1017.59 1017.95 1018.19 1018.23 1018.15 1018.19 1018.27 1018.63 1018.87 1018.91 1018.91 1019.11 1019.19 1019.19 1018.99 1018.83 1018.71 1018.39 1018.55 1018.55 1017.95 1017.95 1018.03 1018.03 1018.19 1018.23 1018.15 1017.47 1017.51 1017.47 1017.43 1017.03 1016.95 1017.03 1016.87 1016.91 1016.95 1016.95 1016.99 1017.11 1017.15 1017.27 1017.39 1017.51 1017.71 1017.87 1017.99 1018.15 1018.31 1018.47 1018.63 1018.79 1018.91 1019.07 1019.23 1019.47 1019.63 1019.83 1019.95 1020.03 1020.15 1020.23 1020.31 1020.31 1020.35
1016.11 1016.15 1016.23 1016.35 1016.47 1016.59 1016.63 1016.79 1016.87 1017.27 1017.71 1017.87 1018.07 1017.83 1017.95 1018.11 1018.47 1018.63 1018.63 1018.79 1018.91 1019.03 1019.03 1018.99 1018.71 1018.47 1018.55 1018.39 1018.11 1017.99 1018.07 1018.27 1018.11 1017.75 1017.83 1017.83 1017.27 1017.27 1016.95 1016.79 1016.87 1016.63 1016.83 1016.87 1016.67 1016.43 1016.55 1016.59 1016.55 1016.55 1016.71 1016.83 1016.95 1017.11 1017.31 1017.43 1017.59 1017.75 1017.95 1018.15 1018.35 1018.51 1018.71 1018.95 1019.15 1019.35 1019.51 1019.63 1019.75 1019.87 1019.99 1020.03 1020.07 1020.19
1015.79 1015.83 1015.83 1015.87 1015.91 1015.99 1016.11 1016.27 1016.47 1016.67 1016.91 1017.43 1017.75 1017.51 1017.63 1017.87 1018.15 1018.31 1018.39 1018.51 1018.67 1018.71 1018.83 1018.75 1018.47 1018.59 1018.63 1018.43 1018.35 1018.23 1018.27 1018.15 1017.43 1017.03 1017.43 1017.31 1016.75 1016.83 1017.03 1016.59 1016.35 1016.43 1016.63 1016.47 1016.31 1016.19 1016.03 1016.19 1016.07 1016.11 1016.39 1016.31 1016.43 1016.63 1016.83 1016.99 1017.11 1017.27 1017.47 1017.67 1017.87 1018.07 1018.35 1018.59 1018.79 1018.95 1019.15 1019.31 1019.43 1019.55 1019.67 1019.75 1019.87 1020.03
1015.47 1015.43 1015.51 1015.43 1015.51 1015.71 1015.87 1016.03 1016.15 1016.27 1016.43 1016.51 1016.63 1016.75 1017.15 1017.39 1017.67 1017.91 1018.11 1018.31 1018.35 1018.51 1018.71 1018.51 1018.35 1018.59 1018.39 1018.07 1017.91 1017.67 1017.11 1016.91 1016.83 1017.03 1017.03 1017.31 1016.67 1016.99 1017.03 1016.55 1015.99 1015.75 1016.19 1016.35 1016.31 1015.67 1015.47 1015.67 1015.63 1015.83 1015.91 1015.59 1015.83 1016.07 1016.35 1016.43 1016.51 1016.67 1016.99 1017.23 1017.43 1017.67 1017.91 1018.15 1018.31 1018.51 1018.75 1018.91 1019.11 1019.23 1019.35 1019.43 1019.59 1019.79
1015.27 1015.23 1015.23 1015.23 1015.23 1015.39 1015.63 1015.71 1015.71 1015.79 1015.91 1016.07 1016.19 1016.15 1016.23 1016.39 1016.87 1017.43 1017.75 1017.75 1017.83 1018.19 1018.19 1017.83 1017.99 1018.03 1017.79 1017.31 1016.95 1017.03 1016.63 1016.51 1016.55 1016.51 1016.63 1016.83 1016.91 1017.15 1017.43 1017.07 1015.35 1014.99 1015.31 1015.79 1015.83 1015.39 1014.91 1015.19 1015.51 1015.35 1015.27 1014.99 1015.27 1015.43 1015.47 1015.55 1015.87 1016.07 1016.35 1016.67 1016.99 1017.27 1017.47 1017.63 1017.83 1018.03 1018.27 1018.51 1018.75 1018.91 1019.03 1019.15 1019.31 1019.51
1014.91 1015.03 1015.03 1014.95 1014.91 1014.99 1014.99 1015.07 1015.23 1015.43 1015.55 1015.67 1015.79 1015.91 1016.07 1016.19 1016.15 1016.07 1016.39 1016.95 1017.51 1017.63 1017.71 1017.63 1017.39 1017.35 1017.19 1016.59 1016.47 1016.43 1016.27 1015.95 1015.99 1015.99 1016.11 1016.23 1016.43 1016.59 1016.71 1016.15 1015.87 1014.39 1014.51 1015.19 1015.55 1015.19 1014.39 1014.59 1014.83 1014.95 1014.39 1014.35 1014.47 1014.43 1014.47 1014.83 1015.15 1015.47 1015.79 1016.11 1016.47 1016.75 1016.95 1017.11 1017.35 1017.55 1017.75 1018.03 1018.27 1018.47 1018.63 1018.83 1019.03 1019.27
1014.55 1014.63 1014.75 1014.75 1014.67 1014.51 1014.55 1014.79 1014.83 1014.91 1014.99 1015.11 1015.35 1015.59 1015.79 1015.91 1015.87 1015.83 1015.75 1015.83 1016.03 1016.15 1016.75 1016.83 1016.59 1016.43 1016.19 1016.19 1015.59 1015.31 1015.19 1014.95 1015.47 1015.35 1015.63 1015.47 1015.43 1015.31 1015.43 1014.95 1014.79 1014.35 1014.23 1015.03 1015.51 1015.19 1013.87 1014.07 1014.39 1014.43 1013.55 1013.75 1013.87 1013.95 1013.99 1014.15 1014.43 1014.71 1015.11 1015.47 1015.79 1016.11 1016.35 1016.59 1016.83 1017.03 1017.27 1017.51 1017.75 1018.03 1018.27 1018.51 1018.75 1018.99
1014.03 1014.11 1014.31 1014.51 1014.55 1014.23 1014.31 1014.35 1014.47 1014.63 1014.75 1014.75 1014.87 1015.15 1015.35 1015.35 1015.11 1015.19 1015.35 1015.75 1015.87 1015.75 1015.71 1015.75 1015.71 1014.83 1015.15 1014.99 1014.31 1013.91 1013.95 1014.47 1014.51 1014.55 1014.59 1014.35 1014.59 1014.63 1014.47 1013.71 1013.83 1013.95 1014.11 1014.63 1014.79 1014.71 1013.43 1013.51 1013.71 1013.59 1012.75 1012.79 1013.03 1013.07 1013.03 1013.35 1013.63 1013.99 1014.35 1014.71 1015.03 1015.39 1015.71 1016.03 1016.27 1016.51 1016.75 1016.99 1017.31 1017.63 1017.91 1018.15 1018.43 1018.67
1013.39 1013.51 1013.71 1013.91 1013.95 1013.83 1013.99 1013.91 1014.03 1014.35 1014.43 1014.47 1014.51 1014.59 1014.59 1014.59 1014.43 1014.39 1014.67 1015.15 1015.15 1015.11 1015.15 1014.95 1014.35 1013.83 1013.83 1013.59 1013.07 1012.75 1012.79 1012.91 1012.79 1012.83 1013.07 1013.19 1013.19 1013.31 1013.43 1013.67 1013.43 1013.75 1013.59 1013.67 1014.27 1014.15 1011.91 1012.27 1013.11 1012.59 1012.15 1012.35 1012.43 1012.11 1012.15 1012.35 1012.71 1013.15 1013.63 1013.99 1014.31 1014.67 1015.03 1015.39 1015.63 1015.95 1016.27 1016.55 1016.87 1017.23 1017.51 1017.83 1018.15 1018.31
1012.83 1012.99 1013.23 1013.39 1013.43 1013.39 1013.51 1013.47 1013.59 1013.75 1013.83 1014.11 1014.23 1014.31 1014.11 1013.95 1013.75 1013.63 1013.59 1013.71 1013.71 1013.71 1013.75 1013.67 1013.35 1012.91 1012.55 1012.27 1011.95 1011.67 1011.83 1012.03 1012.19 1012.47 1012.47 1012.63 1012.99 1013.67 1013.91 1013.55 1013.19 1013.67 1013.27 1012.91 1012.71 1012.03 1011.35 1011.47 1011.95 1011.51 1011.87 1012.35 1012.31 1011.91 1011.99 1011.91 1012.03 1012.35 1012.79 1013.23 1013.55 1013.95 1014.31 1014.63 1014.95 1015.35 1015.75 1016.07 1016.43 1016.75 1017.15 1017.47 1017.79 1018.03
1012.43 1012.51 1012.55 1012.79 1012.95 1013.03 1013.07 1012.95 1013.15 1013.31 1013.59 1013.79 1013.87 1013.87 1013.75 1013.47 1013.39 1013.31 1013.19 1012.95 1012.87 1012.87 1012.87 1012.67 1012.39 1012.15 1011.87 1011.63 1011.31 1011.15 1011.47 1011.79 1011.83 1012.39 1012.99 1012.67 1012.87 1013.75 1013.91 1013.11 1013.27 1013.31 1012.07 1011.23 1011.35 1011.79 1012.03 1011.03 1011.59 1011.67 1011.23 1011.47 1011.83 1012.11 1012.03 1011.79 1011.83 1011.79 1012.03 1012.43 1012.87 1013.23 1013.59 1013.91 1014.31 1014.75 1015.19 1015.59 1015.91 1016.23 1016.67 1017.03 1017.43 1017.71
1011.99 1011.91 1012.03 1012.19 1012.39 1012.59 1012.51 1012.43 1012.63 1012.87 1013.23 1013.51 1013.43 1013.51 1013.47 1013.31 1013.23 1013.07 1012.83 1012.51 1012.39 1012.27 1012.19 1012.11 1011.99 1011.71 1011.43 1011.03 1010.71 1010.91 1011.35 1011.43 1011.67 1012.63 1012.83 1011.35 1012.15 1012.79 1012.75 1012.67 1012.63 1011.39 1011.31 1010.91 1010.95 1012.31 1011.59 1010.99 1011.83 1012.27 1011.95 1012.31 1012.23 1011.91 1011.71 1011.75 1011.71 1011.75 1011.71 1011.83 1012.15 1012.59 1012.95 1013.31 1013.75 1014.15 1014.59 1015.03 1015.35 1015.75 1016.19 1016.67 1017.11 1017.63
1011.67 1011.63 1011.59 1011.71 1011.79 1011.87 1011.83 1011.99 1012.15 1012.35 1012.71 1012.87 1012.91 1012.99 1013.07 1013.07 1012.91 1012.59 1012.43 1012.31 1012.27 1012.27 1012.39 1012.27 1012.15 1011.75 1011.23 1010.79 1010.71 1010.75 1010.63 1010.63 1011.07 1011.59 1011.43 1011.03 1011.75 1012.11 1012.11 1012.19 1012.03 1012.03 1010.55 1009.27 1009.99 1011.63 1010.51 1011.07 1011.27 1011.71 1012.27 1012.47 1011.27 1010.83 1010.83 1010.95 1010.83 1010.95 1011.23 1011.55 1011.87 1012.03 1012.43 1012.83 1013.19 1013.63 1014.03 1014.47 1014.83 1015.23 1015.79 1016.31 1016.91 1017.31
1011.43 1011.31 1011.31 1011.23 1011.31 1011.39 1011.47 1011.59 1011.71 1011.83 1012.11 1012.27 1012.23 1012.55 1012.95 1012.87 1012.59 1011.59 1011.67 1011.67 1011.79 1011.75 1011.63 1011.51 1011.39 1011.07 1010.39 1010.15 1010.27 1010.19 1009.95 1009.99 1010.15 1010.39 1010.51 1010.51 1010.55 1010.79 1010.87 1010.95 1011.11 1010.87 1008.99 1007.95 1008.87 1010.03 1009.39 1009.67 1009.79 1009.91 1010.23 1010.95 1010.83 1009.63 1009.55 1009.95 1009.99 1010.35 1010.67 1011.07 1011.51 1011.75 1012.19 1012.63 1012.95 1013.15 1013.55 1014.03 1014.35 1014.75 1015.35 1015.95 1016.55 1016.75
1011.15 1011.07 1010.99 1010.79 1010.75 1010.87 1010.95 1011.19 1011.47 1011.79 1012.11 1012.23 1012.19 1012.11 1012.27 1011.91 1011.15 1011.19 1011.71 1011.55 1011.59 1011.67 1011.43 1011.27 1011.03 1010.71 1010.23 1010.03 1009.91 1009.63 1009.47 1009.31 1009.19 1009.15 1009.19 1009.19 1009.27 1009.63 1009.79 1009.95 1010.07 1009.35 1007.87 1007.59 1008.15 1008.91 1008.99 1008.67 1009.07 1009.35 1009.59 1009.47 1008.79 1009.39 1009.27 1009.35 1009.63 1009.91 1010.03 1010.35 1010.91 1011.27 1011.83 1012.31 1012.63 1013.03 1013.39 1013.79 1014.11 1014.43 1014.95 1015.59 1015.99 1016.15
1010.59 1010.59 1010.47 1010.39 1010.31 1010.55 1010.83 1011.11 1011.35 1011.59 1011.79 1011.95 1012.23 1011.83 1011.47 1011.35 1011.59 1011.67 1011.71 1011.87 1011.83 1011.71 1011.55 1011.35 1011.11 1010.79 1010.39 1009.95 1009.67 1009.39 1009.11 1008.87 1008.63 1008.47 1008.35 1008.23 1008.19 1008.11 1008.11 1008.35 1008.63 1008.55 1007.47 1006.99 1007.51 1007.67 1008.11 1008.23 1007.99 1008.39 1008.39 1008.95 1008.51 1008.67 1009.47 1009.51 1009.31 1009.35 1009.63 1009.79 1009.91 1010.43 1010.95 1011.63 1012.23 1012.59 1013.07 1013.71 1014.31 1014.55 1014.87 1015.35 1015.59 1015.79
1009.91 1009.79 1009.99 1010.07 1010.31 1010.59 1010.87 1011.07 1011.23 1011.35 1011.47 1011.63 1011.59 1011.47 1011.59 1011.55 1011.47 1011.71 1011.79 1011.67 1011.67 1011.59 1011.47 1011.35 1011.15 1010.63 1010.31 1010.11 1009.71 1009.27 1008.91 1008.39 1008.11 1007.83 1007.47 1007.31 1007.23 1007.07 1006.91 1006.67 1006.43 1006.23 1005.71 1006.11 1006.51 1006.55 1007.03 1006.99 1006.83 1007.35 1007.55 1007.39 1007.79 1008.07 1008.27 1008.99 1009.47 1009.59 1009.91 1009.83 1009.63 1009.71 1010.03 1010.71 1011.55 1011.99 1012.51 1013.23 1013.67 1014.15 1014.75 1015.07 1015.31 1015.51
1009.39 1009.63 1009.79 1010.15 1010.47 1010.59 1010.67 1010.79 1010.91 1011.07 1011.23 1011.19 1011.15 1011.31 1011.31 1011.35 1011.51 1011.67 1011.71 1011.71 1011.63 1011.59 1011.47 1011.35 1011.03 1010.59 1010.11 1009.91 1009.55 1009.07 1008.51 1008.07 1007.67 1007.15 1006.71 1006.59 1006.43 1006.35 1006.03 1005.75 1005.51 1005.11 1005.03 1005.15 1005.43 1005.63 1005.71 1005.79 1005.87 1005.87 1006.11 1006.75 1007.27 1007.83 1008.27 1008.11 1008.79 1008.87 1009.31 1009.59 1009.55 1009.55 1009.83 1010.23 1010.75 1011.27 1011.99 1012.67 1013.39 1013.99 1014.59 1014.99 1015.31 1015.59
1009.39 1009.75 1010.03 1010.15 1010.23 1010.35 1010.43 1010.47 1010.63 1010.75 1010.83 1010.91 1010.99 1011.03 1011.11 1011.27 1011.43 1011.43 1011.51 1011.47 1011.43 1011.47 1011.35 1011.11 1010.75 1010.35 1009.99 1009.63 1009.11 1008.63 1008.27 1007.87 1007.43 1007.03 1006.31 1006.03 1005.75 1005.43 1005.11 1004.75 1004.51 1004.43 1004.47 1004.27 1004.31 1004.31 1004.47 1004.59 1004.79 1005.07 1005.47 1005.59 1006.27 1006.59 1007.07 1007.07 1007.19 1007.83 1007.67 1008.51 1009.39 1009.35 1009.51 1009.75 1010.11 1010.83 1011.59 1012.19 1012.75 1013.39 1013.87 1014.11 1014.63 1015.03
1009.55 1009.75 1009.91 1010.03 1010.11 1010.19 1010.31 1010.35 1010.43 1010.59 1010.71 1010.83 1010.87 1010.87 1010.95 1011.03 1011.11 1011.19 1011.23 1011.27 1011.35 1011.31 1011.11 1010.95 1010.75 1010.27 1009.79 1009.43 1008.95 1008.59 1008.27 1008.03 1007.59 1007.07 1006.43 1005.99 1005.43 1005.31 1005.11 1004.83 1004.19 1003.99 1003.75 1003.55 1003.51 1003.59 1003.75 1003.87 1004.03 1004.43 1004.83 1004.95 1005.11 1005.51 1005.63 1006.07 1006.67 1006.51 1006.87 1007.11 1007.51 1008.75 1009.11 1009.35 1009.83 1010.27 1010.91 1011.59 1012.35 1012.95 1013.23 1013.67 1013.91 1014.39
1009.51 1009.71 1009.79 1009.95 1010.07 1010.19 1010.31 1010.39 1010.55 1010.67 1010.75 1010.79 1010.83 1010.87 1010.87 1010.91 1010.95 1010.99 1011.07 1011.15 1011.23 1011.11 1010.99 1010.79 1010.51 1010.07 1009.63 1009.23 1008.99 1008.75 1008.43 1007.95 1007.27 1006.95 1006.59 1006.31 1005.59 1005.39 1004.95 1004.75 1003.91 1003.59 1003.11 1002.91 1002.83 1002.83 1002.79 1002.59 1002.71 1003.31 1004.07 1004.15 1004.31 1004.27 1004.43 1004.79 1005.59 1006.39 1006.71 1006.83 1007.15 1007.75 1008.47 1009.15 1009.55 1009.99 1010.35 1011.11 1011.99 1012.51 1013.11 1013.67 1013.83 1013.91
1009.55 1009.71 1009.91 1010.07 1010.23 1010.35 1010.51 1010.67 1010.71 1010.75 1010.75 1010.83 1010.87 1010.87 1010.87 1010.91 1010.91 1010.91 1010.87 1010.87 1010.83 1010.79 1010.63 1010.47 1010.15 1009.83 1009.51 1009.27 1008.87 1008.51 1008.19 1007.71 1007.03 1006.71 1006.43 1006.11 1005.35 1004.87 1004.87 1004.39 1003.39 1002.99 1002.59 1002.31 1002.07 1001.75 1001.83 1001.83 1001.99 1002.03 1002.15 1002.55 1003.31 1003.55 1003.75 1004.15 1004.55 1005.07 1005.71 1006.07 1006.31 1006.75 1007.27 1008.23 1009.19 1009.95 1010.35 1011.07 1012.23 1012.79 1013.15 1013.43 1013.51 1013.67
1009.71 1009.87 1010.07 1010.19 1010.35 1010.43 1010.51 1010.59 1010.71 1010.83 1010.87 1010.87 1010.91 1010.87 1010.83 1010.83 1010.83 1010.83 1010.87 1010.87 1010.71 1010.51 1010.47 1010.31 1010.03 1009.63 1009.31 1008.95 1008.55 1008.27 1007.87 1007.35 1006.83 1006.19 1005.91 1005.27 1005.19 1004.23 1004.35 1003.91 1003.11 1002.91 1002.51 1001.95 1001.63 1001.35 1001.11 1000.83 1000.55 1000.43 1000.43 1000.63 1000.83 1001.39 1002.31 1003.51 1003.95 1004.31 1004.79 1005.71 1006.47 1007.03 1007.31 1007.75 1008.51 1009.63 1010.47 1011.27 1011.91 1012.47 1012.95 1013.07 1013.03 1013.15
1009.47 1009.71 1009.83 1010.19 1010.31 1010.47 1010.59 1010.71 1010.91 1010.95 1010.99 1010.95 1010.87 1010.75 1010.71 1010.71 1010.67 1010.51 1010.43 1010.43 1010.39 1010.27 1010.15 1009.87 1009.59 1009.31 1008.99 1008.67 1008.31 1007.91 1007.47 1006.75 1006.27 1005.67 1005.47 1004.75 1004.47 1004.27 1003.71 1003.31 1002.63 1002.31 1002.11 1001.67 1001.35 1000.91 1000.71 1000.39 1000.39 1000.51 1000.55 1000.71 1000.91 1001.03 1001.31 1002.11 1003.19 1003.79 1004.31 1004.87 1005.79 1006.67 1007.15 1007.83 1008.63 1009.15 1009.83 1010.51 1011.35 1012.27 1012.59 1012.75 1012.91 1013.07
1009.35 1009.59 1009.91 1010.43 1010.63 1010.79 1010.87 1010.95 1011.07 1011.03 1011.03 1010.99 1010.95 1010.87 1010.67 1010.51 1010.51 1010.55 1010.55 1010.43 1010.23 1009.99 1009.75 1009.47 1009.23 1008.95 1008.79 1008.47 1008.07 1007.67 1007.15 1006.59 1005.79 1005.07 1004.63 1004.39 1003.95 1003.67 1003.11 1002.67 1001.95 1001.63 1001.39 1001.03 1000.63 1000.31 1000.07 1000.11 1000.23 1000.55 1000.99 1001.03 1001.15 1001.67 1001.63 1001.47 1002.27 1003.59 1004.27 1004.55 1005.15 1005.95 1006.99 1007.83 1008.79 1009.59 1010.03 1010.67 1011.15 1011.87 1012.43 1012.63 1012.75 1012.99
1009.83 1009.91 1010.15 1010.47 1010.71 1010.83 1010.87 1010.91 1010.91 1010.91 1010.95 1010.95 1010.95 1010.91 1010.83 1010.67 1010.55 1010.51 1010.43 1010.07 1009.87 1009.63 1009.39 1009.15 1008.95 1008.71 1008.47 1008.15 1007.75 1007.31 1006.79 1006.27 1005.71 1005.07 1004.47 1004.03 1003.51 1002.79 1002.27 1001.75 1001.27 1000.87 1000.63 1000.43 1000.15 999.83 999.83 999.83 1000.03 1000.43 1000.83 1001.35 1001.75 1002.31 1002.47 1002.31 1002.27 1002.99 1003.91 1005.07 1005.43 1006.03 1007.11 1008.11 1008.95 1009.47 1009.91 1010.59 1011.11 1011.71 1012.27 1012.43 1012.55 1012.79
1010.11 1010.31 1010.47 1010.59 1010.63 1010.67 1010.75 1010.79 1010.79 1010.83 1010.87 1010.91 1010.87 1010.87 1010.83 1010.71 1010.51 1010.27 1009.95 1009.67 1009.47 1009.27 1009.11 1008.99 1008.79 1008.51 1008.23 1007.91 1007.59 1007.03 1006.47 1006.11 1005.71 1005.03 1004.47 1003.75 1003.11 1002.47 1001.91 1001.31 1000.95 1000.59 1000.39 999.91 999.51 999.47 999.51 999.71 999.83 1000.15 1000.47 1000.87 1001.19 1002.03 1003.03 1003.19 1003.19 1003.51 1003.19 1003.87 1005.51 1005.95 1007.03 1008.43 1009.27 1009.71 1010.03 1010.43 1011.23 1011.59 1011.87 1012.15 1012.35 1012.59
1010.23 1010.43 1010.51 1010.55 1010.59 1010.59 1010.59 1010.67 1010.75 1010.79 1010.79 1010.83 1010.79 1010.67 1010.59 1010.51 1010.31 1010.03 1009.67 1009.47 1009.27 1009.11 1008.99 1008.87 1008.59 1008.35 1008.11 1007.83 1007.51 1007.03 1006.55 1006.11 1005.67 1005.11 1004.43 1003.87 1003.11 1002.23 1001.67 1001.15 1000.67 1000.19 999.83 999.43 999.19 999.11 999.03 999.23 999.47 999.63 1000.07 1000.75 1001.51 1002.19 1003.11 1003.87 1004.03 1004.75 1004.83 1004.35 1005.43 1006.79 1007.71 1008.47 1008.95 1009.55 1010.31 1010.79 1011.11 1011.63 1011.87 1011.99 1012.15 1012.31
1010.15 1010.39 1010.43 1010.47 1010.51 1010.59 1010.71 1010.75 1010.75 1010.75 1010.71 1010.63 1010.59 1010.59 1010.51 1010.31 1010.07 1009.83 1009.59 1009.43 1009.27 1009.23 1009.07 1008.79 1008.51 1008.27 1008.07 1007.75 1007.43 1007.15 1006.79 1006.35 1005.83 1005.23 1004.59 1003.95 1003.31 1002.43 1001.51 1000.99 1000.51 1000.11 999.91 999.67 999.51 999.31 999.07 999.07 999.15 999.71 1000.03 999.99 1000.23 1000.59 1001.35 1003.03 1004.79 1005.43 1005.75 1005.83 1006.07 1007.39 1008.19 1008.03 1008.59 1009.43 1010.11 1010.87 1011.47 1011.87 1012.11 1012.35 1012.51 1012.71
1010.11 1010.23 1010.31 1010.35 1010.47 1010.51 1010.55 1010.59 1010.59 1010.55 1010.51 1010.47 1010.47 1010.39 1010.27 1010.11 1009.87 1009.67 1009.51 1009.39 1009.31 1009.15 1008.95 1008.71 1008.51 1008.27 1008.03 1007.83 1007.51 1007.11 1006.75 1006.47 1006.11 1005.63 1005.07 1004.43 1003.83 1003.19 1002.47 1001.79 1001.39 1001.11 1000.79 1000.71 1000.43 1000.19 999.87 999.55 999.51 999.63 1000.11 1001.15 1001.67 1001.87 1001.99 1003.35 1004.91 1005.87 1006.43 1006.87 1007.07 1007.19 1007.95 1008.43 1008.67 1009.23 1009.99 1010.47 1011.11 1011.55 1012.03 1012.27 1012.39 1012.99
1010.07 1010.15 1010.19 1010.19 1010.35 1010.47 1010.51 1010.47 1010.39 1010.35 1010.39 1010.39 1010.31 1010.15 1010.03 1009.87 1009.71 1009.55 1009.47 1009.47 1009.35 1009.03 1008.71 1008.51 1008.47 1008.39 1008.23 1007.87 1007.59 1007.31 1006.95 1006.51 1006.19 1005.83 1005.39 1004.87 1004.23 1003.67 1003.11 1002.47 1001.95 1001.59 1001.39 1001.59 1001.51 1001.19 1000.99 1000.55 999.91 999.63 999.87 1000.43 1000.75 1000.95 1001.67 1002.95 1004.59 1005.67 1006.35 1007.11 1007.55 1007.99 1008.19 1008.35 1008.67 1009.11 1009.55 1010.31 1010.71 1011.23 1011.75 1012.07 1012.39 1012.87
1009.95 1010.03 1010.07 1010.07 1010.19 1010.23 1010.23 1010.27 1010.27 1010.35 1010.35 1010.23 1010.07 1009.91 1009.79 1009.71 1009.59 1009.51 1009.47 1009.35 1009.19 1008.91 1008.75 1008.63 1008.59 1008.47 1008.19 1007.83 1007.55 1007.27 1007.03 1006.79 1006.43 1006.07 1005.71 1005.31 1004.79 1004.19 1003.63 1003.19 1002.95 1002.79 1002.63 1002.79 1002.79 1002.75 1002.55 1001.83 1001.07 1000.91 1001.55 1002.03 1002.15 1002.07 1003.11 1003.59 1004.71 1005.87 1006.71 1007.39 1007.79 1007.91 1008.19 1008.55 1008.79 1008.95 1009.11 1009.75 1010.51 1011.11 1011.75 1012.31 1012.31 1012.43
1009.99 1010.03 1009.95 1009.91 1009.99 1010.03 1010.11 1010.23 1010.27 1010.27 1010.15 1009.99 1009.91 1009.83 1009.75 1009.67 1009.55 1009.51 1009.43 1009.31 1009.07 1008.91 1008.83 1008.75 1008.67 1008.47 1008.19 1007.79 1007.51 1007.31 1007.11 1006.83 1006.59 1006.35 1005.95 1005.59 1005.27 1004.99 1004.63 1004.35 1004.19 1004.07 1003.95 1003.91 1003.75 1003.55 1003.31 1002.79 1002.23 1002.07 1002.35 1002.79 1003.43 1003.47 1004.43 1005.15 1005.55 1006.19 1006.95 1007.51 1007.91 1008.23 1008.67 1008.99 1009.15 1009.23 1009.39 1009.43 1009.39 1009.55 1010.03 1010.67 1011.51 1012.07
1009.95 1009.87 1009.83 1009.83 1009.91 1010.07 1010.19 1010.23 1010.19 1010.07 1009.99 1009.91 1009.91 1009.83 1009.75 1009.71 1009.63 1009.55 1009.43 1009.27 1009.11 1008.99 1008.91 1008.79 1008.63 1008.39 1008.11 1007.71 1007.39 1007.19 1007.03 1006.91 1006.75 1006.59 1006.31 1006.03 1005.79 1005.55 1005.35 1005.15 1004.87 1004.75 1004.71 1004.63 1004.47 1004.27 1004.03 1003.79 1003.67 1003.47 1003.63 1004.11 1004.35 1004.75 1005.51 1005.79 1006.15 1006.47 1006.99 1007.47 1007.83 1008.07 1008.63 1009.03 1009.27 1009.43 1009.55 1009.67 1009.75 1009.87 1009.91 1010.03 1010.27 1010.39
1009.83 1009.87 1009.87 1009.87 1009.95 1010.07 1010.15 1010.07 1010.03 1009.99 1009.99 1009.99 1009.95 1009.87 1009.83 1009.79 1009.71 1009.55 1009.35 1009.23 1009.11 1009.03 1008.95 1008.75 1008.55 1008.27 1007.99 1007.67 1007.39 1007.15 1007.03 1006.87 1006.75 1006.63 1006.51 1006.27 1006.07 1005.87 1005.71 1005.51 1005.35 1005.23 1005.23 1005.15 1005.03 1005.07 1005.03 1004.99 1004.91 1004.71 1004.79 1005.07 1005.03 1005.35 1005.79 1006.03 1006.51 1006.87 1007.07 1007.23 1007.75 1008.11 1008.47 1008.83 1009.11 1009.31 1009.43 1009.59 1009.83 1010.03 1010.15 1010.51 1010.59 1010.59
Wind_Speed
6 5 5 7 6 5 4 3 4 5 3 4 4 5 7 6 4 3 3 4 5 4 5 4 4 8 7 7 6 6 7 8 9 7 8 8 7 11 16 16 15 15 16 16 16 16 16 16 16 16 15 15 14 14 14 14 13 12 11 11 10 10 11 9 8 8 7 7 7 7 7 8 8 8
5 5 5 5 6 5 4 6 5 4 5 4 5 5 4 5 7 5 5 7 4 4 3 5 4 4 7 7 6 6 8 9 10 7 8 8 8 13 15 16 16 16 16 16 16 16 16 16 16 15 15 15 15 15 15 14 14 13 13 11 11 11 11 9 8 8 7 7 7 8 8 8 8 7
5 6 6 6 6 5 6 5 5 4 4 5 5 5 4 5 5 6 4 4 5 4 5 5 5 4 6 7 7 6 7 8 10 8 8 9 12 14 12 16 17 17 17 17 16 16 16 16 15 15 15 15 15 15 15 15 14 14 13 12 11 11 11 10 8 7 7 8 8 8 8 8 7 7
6 7 7 7 7 6 5 6 6 5 4 4 5 4 5 5 5 4 5 7 11 4 5 4 3 4 4 4 6 7 6 7 10 8 8 9 9 9 8 13 17 17 18 17 17 17 17 16 16 16 16 16 16 16 16 15 15 14 13 13 12 12 12 10 8 6 8 8 8 8 8 8 7 7
6 8 8 9 8 6 6 7 6 6 5 4 5 4 5 5 4 5 6 7 10 5 3 3 4 1 2 3 5 7 7 6 7 8 8 8 8 8 8 9 14 17 18 18 18 18 17 17 17 17 17 17 17 17 16 15 15 14 14 14 13 12 12 10 8 8 8 9 8 8 8 8 7 6
8 8 9 9 9 6 8 7 7 7 6 5 5 5 6 6 6 5 6 7 5 11 1 3 2 3 3 4 3 8 8 8 5 8 8 7 8 9 8 8 9 16 17 18 19 18 18 18 18 18 18 18 18 17 16 16 15 14 14 14 13 13 12 11 9 9 9 8 9 9 8 8 7 6
8 8 9 11 9 5 7 8 8 6 6 5 6 7 6 6 6 5 7 5 7 9 9 4 4 3 3 6 6 5 7 7 6 7 8 9 8 8 9 9 8 13 17 18 19 19 19 18 18 18 18 18 18 17 17 15 14 14 14 14 14 13 12 11 10 10 10 9 10 10 9 8 7 7
8 10 9 11 9 7 8 9 8 7 5 6 6 7 6 6 7 6 6 7 7 6 8 4 5 3 4 6 5 4 3 5 6 7 7 5 7 8 8 9 9 11 16 17 18 19 19 19 19 18 18 18 17 17 16 15 14 14 14 14 14 13 12 12 11 11 10 10 10 10 9 9 7 6
9 9 11 12 9 7 9 9 8 8 8 7 6 7 7 7 7 5 6 7 7 7 10 9 4 4 4 4 3 4 5 5 6 5 7 8 9 8 8 7 9 12 14 15 17 17 18 18 19 19 18 18 17 16 16 15 15 14 14 14 14 13 13 12 12 11 11 10 10 10 9 8 8 7
9 10 12 11 8 8 10 11 10 8 8 7 7 9 9 8 5 6 6 6 7 7 10 8 9 3 5 4 5 5 6 7 6 7 7 6 6 7 8 9 8 7 7 7 9 12 14 16 19 18 18 18 17 16 15 15 15 15 15 15 14 14 14 13 12 12 11 11 11 10 10 10 9 8
10 11 10 10 9 10 11 11 11 9 7 7 9 9 9 7 5 6 7 7 7 8 8 8 8 9 5 5 8 5 5 6 7 8 6 8 8 8 9 10 8 7 8 10 13 12 12 14 13 16 19 18 18 16 16 16 16 16 16 15 15 15 14 13 13 12 12 12 12 11 11 11 10 9
10 11 11 10 10 11 11 11 10 7 7 5 7 8 7 7 6 7 7 6 7 8 8 9 10 7 6 4 5 2 1 4 6 8 8 11 9 9 9 10 10 8 7 9 8 10 11 12 15 16 15 17 17 16 15 17 17 17 17 16 16 16 15 14 13 13 13 13 13 12 12 11 10 9
10 10 10 11 11 11 13 15 13 11 9 7 8 9 7 7 7 8 7 7 7 8 8 9 7 7 7 7 7 8 7 10 13 4 7 10 10 6 5 8 8 7 7 8 8 9 9 10 10 9 8 10 13 13 15 12 15 17 16 17 17 16 16 15 14 14 14 14 13 13 12 11 10 8
10 11 10 10 14 15 15 15 15 16 15 15 12 10 7 9 8 9 8 8 8 8 9 10 9 9 10 9 9 11 11 9 7 7 6 8 9 3 7 8 7 7 8 9 10 11 7 9 10 8 10 9 10 8 9 10 11 15 17 17 17 17 16 16 16 16 15 14 13 13 13 11 10 10
11 10 10 10 12 13 12 14 17 17 17 17 18 19 16 12 11 9 9 10 8 8 10 10 8 10 12 12 10 9 11 8 10 10 7 8 6 7 8 12 7 7 11 10 11 12 8 9 10 9 10 10 8 9 10 15 18 18 18 19 18 17 17 16 17 16 15 14 14 13 12 11 11 10
10 10 10 9 9 9 12 12 12 14 17 18 18 18 17 17 16 16 13 11 8 9 10 10 11 10 11 13 9 10 9 12 8 8 8 9 9 10 10 11 13 5 10 10 9 12 8 8 10 10 12 10 9 12 15 18 19 19 19 19 18 18 18 18 17 17 15 14 14 14 12 12 11 11
11 10 10 10 9 9 15 13 11 11 12 14 18 18 17 17 18 19 19 16 14 10 10 11 13 12 12 13 13 11 11 8 10 8 9 10 11 12 12 13 12 6 8 5 8 12 11 8 9 12 12 9 9 11 15 19 20 20 20 19 19 19 19 19 18 17 16 15 15 14 13 12 12 12
11 12 11 10 10 10 9 10 11 10 11 11 9 10 10 12 16 19 20 18 18 16 13 13 15 15 10 15 14 13 10 10 13 12 13 12 12 12 15 15 12 2 8 10 7 9 10 8 10 13 12 10 10 11 15 20 21 20 20 20 20 20 20 19 18 18 16 16 15 14 13 13 13 13
12 11 10 10 12 11 10 9 11 10 11 11 11 11 11 11 12 12 11 12 13 14 13 15 18 18 14 15 17 16 13 15 15 14 15 14 14 11 7 7 6 5 8 8 7 14 15 8 10 13 12 8 11 11 15 20 21 21 20 20 20 20 20 19 19 18 17 16 15 14 14 13 13 13
10 10 10 11 12 12 10 12 15 14 11 11 12 12 12 12 12 12 11 15 16 16 15 15 17 17 19 20 19 18 15 13 12 11 11 10 8 6 9 13 7 7 6 11 14 15 14 7 13 12 7 8 11 10 9 16 21 21 21 21 21 21 20 21 20 19 18 16 16 15 15 14 14 13
11 10 11 11 10 10 11 13 15 16 15 12 13 13 13 12 12 11 7 15 21 22 23 24 24 26 26 26 27 26 24 18 14 10 10 15 9 9 12 15 7 8 11 13 14 12 13 10 8 8 9 8 9 8 10 9 16 21 21 21 22 21 21 21 20 19 18 17 17 16 16 15 14 14
10 11 15 14 11 11 12 14 16 16 13 12 13 13 13 14 13 10 8 8 10 19 23 24 25 27 26 28 29 27 24 24 17 12 16 18 9 12 13 14 11 14 12 14 10 9 16 9 2 6 2 0 4 7 7 8 10 17 18 22 22 21 21 21 20 20 19 19 18 17 16 16 14 8
10 10 11 15 15 13 14 16 15 16 14 12 12 12 13 14 14 11 9 10 10 7 8 11 13 16 20 21 19 18 25 25 20 15 17 16 12 13 12 11 11 13 15 16 13 12 15 10 6 9 3 6 8 9 11 11 10 10 11 12 14 20 21 21 20 20 20 19 19 18 17 16 12 6
10 10 10 11 15 18 18 17 17 16 16 14 12 9 10 12 15 12 10 10 9 10 9 9 9 14 15 14 13 14 16 16 15 16 16 17 16 16 14 14 14 16 16 7 15 15 12 10 13 11 13 11 9 8 10 10 11 10 10 10 10 15 17 17 16 21 20 19 19 19 18 17 13 7
10 10 10 9 12 17 18 17 16 14 12 12 11 10 10 13 15 10 7 8 7 7 9 9 9 9 10 10 10 12 12 12 12 13 15 16 16 16 16 15 15 17 19 10 15 12 13 12 13 10 12 12 12 5 4 9 8 10 10 11 12 9 10 10 8 10 13 17 18 19 18 17 17 11
9 10 9 9 10 11 11 11 11 11 11 12 8 12 16 15 14 10 5 7 8 9 9 10 10 10 11 12 11 11 11 11 12 12 12 13 16 16 17 18 17 17 18 12 20 15 13 11 15 14 12 12 13 11 4 5 8 10 10 11 11 10 12 11 9 9 9 8 8 10 11 14 15 16
11 8 7 5 2 4 4 4 3 3 6 6 8 13 13 14 15 10 7 7 7 7 8 8 9 11 10 11 12 12 12 12 12 12 12 12 13 15 16 18 19 20 19 14 13 16 14 14 12 15 15 15 15 11 12 10 3 2 5 9 10 10 11 11 11 10 9 9 9 12 12 12 14 15
6 5 3 3 4 2 0 2 3 4 4 5 8 9 11 10 8 4 4 5 5 6 7 8 9 10 10 9 11 12 13 13 13 15 15 14 14 14 14 16 20 21 21 19 16 15 15 16 14 15 17 15 14 12 11 5 5 12 13 10 8 9 10 11 11 10 9 8 7 8 7 6 6 7
3 5 5 2 1 2 3 5 4 3 5 7 7 7 7 5 2 3 3 4 4 5 7 8 9 10 9 10 11 11 12 13 13 14 15 14 14 14 15 16 16 16 15 16 18 17 17 17 16 15 15 15 15 12 11 13 13 12 15 13 9 9 9 10 10 10 10 9 9 8 9 8 7 7
4 2 2 4 3 3 2 0 1 1 1 3 3 4 2 1 2 2 3 3 4 6 6 7 8 9 9 10 10 12 12 13 14 14 15 14 15 12 13 13 14 14 15 16 16 16 16 16 16 15 15 14 14 14 16 14 11 12 13 14 11 8 7 9 9 9 11 10 9 8 7 7 8 9
2 2 3 3 3 4 4 4 3 3 1 1 2 2 2 2 2 2 2 3 4 6 7 7 8 9 9 10 11 11 11 12 13 11 14 14 15 13 13 14 17 14 14 14 16 16 17 19 18 16 15 13 12 15 16 15 14 11 11 11 14 13 10 10 9 9 10 9 6 5 4 5 5 6
4 5 5 5 4 4 4 4 2 2 2 1 1 2 1 2 2 3 5 5 5 6 6 7 8 9 9 10 10 10 11 12 13 11 13 13 16 14 13 15 16 14 13 13 13 17 19 17 17 16 18 17 16 15 14 13 15 14 14 13 14 10 12 12 11 9 9 9 7 6 6 7 7 6
5 5 4 4 4 4 3 3 4 4 4 3 2 2 3 3 2 2 2 3 5 5 5 7 8 9 9 10 10 11 12 12 13 13 14 15 15 16 13 17 16 15 14 13 12 12 13 15 17 20 20 20 21 21 19 15 11 11 14 10 8 10 11 12 12 11 10 10 8 7 7 6 6 7
6 4 5 5 5 4 4 4 4 4 4 5 6 5 4 3 4 5 5 5 6 6 6 7 8 9 9 10 10 9 10 11 11 13 14 15 13 15 15 15 15 13 13 14 13 12 11 14 14 15 16 14 6 10 14 16 14 14 14 14 12 11 10 11 11 13 13 12 11 8 6 6 5 4
5 5 6 5 4 4 3 3 3 3 4 4 4 6 6 6 6 5 5 6 6 6 7 8 8 8 8 9 9 9 10 12 13 14 11 12 13 13 14 15 14 12 12 13 13 12 13 11 12 4 2 3 7 6 8 3 14 11 10 11 12 13 12 10 11 10 10 8 9 9 7 5 6 5
6 5 6 5 4 3 3 2 2 2 3 3 4 5 6 6 5 5 6 6 7 7 6 7 8 8 8 8 9 10 11 12 12 13 14 13 14 13 12 13 14 13 12 12 13 11 10 11 10 10 9 7 5 4 2 11 8 15 16 12 11 12 10 10 10 10 10 9 8 8 8 7 6 5
6 5 5 4 3 3 2 1 2 2 3 3 4 4 5 6 6 6 7 7 6 6 6 7 8 8 8 8 9 11 11 10 12 13 13 13 13 13 12 11 12 12 12 13 12 10 7 8 5 6 9 9 9 8 4 3 11 8 8 16 12 12 13 11 11 10 8 8 7 7 7 7 6 6
6 4 4 4 2 1 1 1 2 2 2 3 4 4 5 5 6 6 7 6 7 7 7 7 7 7 7 7 8 9 10 11 12 12 13 13 14 13 11 10 11 11 11 11 9 8 6 7 7 11 12 10 9 13 11 8 8 9 8 13 14 11 10 10 10 10 7 5 7 5 4 6 6 7
5 4 3 2 2 1 0 1 2 3 3 3 3 4 5 5 5 6 6 6 6 7 7 7 7 7 8 8 8 8 9 11 12 13 13 13 13 12 11 9 8 8 8 7 4 3 1 3 6 3 3 5 12 14 15 14 11 9 10 13 13 12 8 10 10 9 9 6 4 4 4 4 7 9
4 3 3 2 2 2 2 1 2 2 3 3 4 4 4 5 5 6 6 6 7 7 7 6 7 8 7 7 7 8 8 9 10 11 12 12 12 11 9 7 7 6 8 8 7 7 6 6 6 10 15 15 13 13 15 15 11 9 9 9 11 12 11 8 8 10 8 7 7 7 5 4 4 1
3 3 2 1 1 1 1 1 1 2 3 3 4 4 4 4 5 5 5 6 7 7 7 7 7 7 7 7 7 6 8 9 9 10 10 10 11 10 12 10 8 8 10 9 8 9 8 7 13 21 20 17 18 18 18 17 15 12 10 7 7 11 12 9 9 9 6 7 8 8 8 7 6 4
3 2 1 0 1 0 0 1 2 3 3 3 4 4 4 5 4 6 6 6 6 6 6 6 6 7 7 6 6 6 7 8 8 9 9 9 10 11 13 11 10 10 9 10 10 9 7 7 11 13 11 9 6 10 11 12 13 11 9 8 6 6 9 10 11 8 10 11 8 6 5 4 4 4
1 0 0 1 2 1 1 1 2 3 3 3 4 4 4 5 5 5 4 5 5 5 5 5 5 5 6 5 4 5 6 7 7 7 8 9 9 10 10 10 10 10 9 8 8 8 8 9 9 10 11 11 9 10 12 10 10 10 8 8 7 6 6 7 9 10 7 13 13 11 9 7 7 5
2 2 3 2 2 1 0 1 2 3 3 3 4 4 4 4 5 5 4 5 5 5 5 5 5 4 5 5 3 3 4 6 6 6 7 7 7 7 8 9 9 9 8 8 9 9 9 9 8 8 10 9 9 12 11 11 10 9 9 7 6 8 7 5 5 6 6 4 1 4 6 11 7 11
4 4 2 2 1 1 1 1 3 3 3 4 4 4 4 4 4 4 4 4 4 5 5 5 4 4 4 4 4 5 5 5 5 5 5 6 6 6 6 6 7 8 8 7 8 8 8 7 7 7 8 7 7 9 9 10 9 8 7 8 9 7 7 6 7 6 5 2 6 6 2 3 6 8
Wind_Direction
213 218 213 215 224 230 214 212 218 222 216 212 188 180 183 172 194 264 285 267 236 283 200 224 241 202 211 217 216 218 221 224 213 211 214 216 218 220 219 221 224 225 225 225 226 228 229 230 232 235 237 238 238 239 242 245 248 250 250 252 255 259 264 264 260 256 261 269 274 280 284 287 288 290
209 218 226 223 232 232 213 220 218 209 214 211 206 207 199 169 195 200 232 272 217 248 276 218 244 201 210 209 217 212 225 224 216 213 217 219 220 221 220 221 223 226 228 228 228 229 230 232 233 235 237 239 241 241 242 244 246 248 250 249 249 254 258 258 254 253 255 261 268 272 274 277 282 291
205 217 224 224 234 232 230 231 221 217 205 217 205 216 199 199 201 199 189 261 277 193 231 254 245 220 216 207 213 219 225 223 214 217 218 222 224 221 223 223 224 226 228 229 230 231 231 233 235 236 237 239 240 241 242 244 246 247 248 246 246 250 254 256 251 248 252 258 263 264 267 270 277 282
210 217 225 225 225 228 229 239 235 223 213 202 205 206 205 215 204 183 196 228 261 192 207 241 267 242 230 213 214 225 230 225 217 223 222 225 219 221 228 228 227 227 229 230 231 232 233 234 235 236 238 239 240 241 241 242 245 246 245 244 244 245 249 248 242 238 247 255 258 260 258 261 266 271
214 219 226 231 229 216 223 233 238 239 228 203 210 207 201 221 205 183 200 230 266 279 221 224 237 264 202 249 212 230 232 231 225 223 227 224 222 222 224 228 228 227 229 230 232 233 234 235 236 237 238 239 241 242 242 241 240 240 241 240 240 240 242 240 231 230 237 244 249 250 251 252 254 257
217 217 226 237 235 218 224 231 232 231 232 223 223 223 208 218 218 200 200 235 243 269 285 277 267 261 186 238 197 212 226 235 217 222 227 222 220 223 223 226 232 228 227 229 231 233 235 236 237 238 239 240 241 242 241 240 235 234 234 233 234 234 233 231 223 223 229 236 242 246 248 246 244 249
215 219 226 235 232 222 229 236 237 226 226 219 222 234 219 226 220 201 206 216 249 261 268 205 251 236 219 209 235 222 229 233 213 223 229 225 224 226 223 225 231 228 226 227 229 231 233 235 237 238 239 240 241 241 240 237 233 229 229 229 230 230 228 223 219 219 224 229 236 241 240 237 237 241
212 220 227 236 229 221 228 237 237 235 224 218 223 231 230 224 232 211 198 214 229 248 265 255 214 231 218 248 245 236 233 234 232 224 236 233 233 231 228 229 233 231 226 227 228 230 232 234 235 237 238 239 240 239 236 233 230 227 225 226 227 227 225 219 216 219 221 227 231 235 234 231 235 238
217 221 226 235 227 218 228 240 236 231 227 227 222 233 232 223 226 217 210 221 217 239 250 265 230 225 236 241 238 214 223 243 240 242 234 228 229 232 231 231 236 240 233 231 231 231 232 234 235 236 237 238 238 235 231 228 226 224 222 223 223 223 221 218 216 218 221 223 227 227 230 230 231 234
219 223 229 235 228 223 225 237 236 229 229 228 231 235 238 231 217 220 227 224 230 231 249 254 273 228 233 262 244 214 203 223 244 248 245 246 236 231 238 233 232 229 228 230 234 235 237 237 237 236 237 237 235 231 226 223 221 220 219 218 219 218 217 215 214 216 219 221 222 222 224 226 227 229
223 226 230 232 227 228 230 237 238 231 225 224 234 236 241 242 223 229 231 227 232 237 250 259 251 266 248 216 260 247 210 222 224 238 247 251 229 224 227 240 232 225 232 234 231 229 224 227 228 228 230 231 230 225 223 221 218 216 215 214 214 215 214 213 214 215 215 217 217 218 219 221 223 221
226 228 231 232 228 228 233 235 243 233 231 214 234 238 236 237 225 233 238 234 235 242 246 247 261 250 263 256 248 293 190 248 262 229 224 247 243 226 228 230 232 226 219 234 234 233 232 234 233 230 227 228 228 225 223 220 217 214 212 210 211 212 212 211 212 213 213 213 212 213 215 217 218 218
227 230 232 233 233 231 234 234 237 234 225 216 229 237 220 230 225 232 233 234 235 247 249 261 255 262 261 255 263 258 232 228 243 221 196 243 253 245 251 251 231 228 219 235 236 232 213 222 226 216 218 223 221 226 220 222 216 215 211 208 209 209 208 209 210 211 212 210 208 210 213 213 209 212
230 231 232 237 236 233 233 234 234 235 231 225 226 235 212 222 223 228 233 232 232 239 249 250 253 257 253 250 241 248 247 243 256 250 219 235 253 255 254 268 240 206 207 230 238 239 217 218 230 213 223 227 208 214 206 214 210 212 209 209 208 207 206 207 208 210 211 207 205 209 211 207 204 209
234 234 233 238 240 236 236 236 235 234 233 230 231 235 233 222 215 226 229 234 228 232 240 249 249 247 257 253 244 244 255 244 235 240 230 236 246 233 242 257 263 187 197 215 234 246 219 207 226 220 225 221 200 205 212 208 210 208 204 206 205 205 205 205 208 210 209 203 204 209 209 205 204 206
236 236 235 235 235 236 234 235 238 237 237 237 235 236 238 238 233 226 224 232 233 227 238 246 243 246 249 257 247 247 244 249 242 233 228 227 227 232 232 240 246 223 177 208 221 247 230 198 220 229 229 219 207 210 209 205 207 207 205 203 203 203 203 205 208 210 205 200 203 207 206 204 202 205
232 234 236 238 235 238 235 237 240 241 243 235 235 238 241 242 239 241 240 236 237 235 236 240 250 236 247 254 251 236 241 235 243 230 227 228 227 227 232 239 244 230 179 179 224 240 234 184 213 228 232 213 211 217 213 207 205 206 204 201 200 201 202 204 207 208 203 200 203 204 204 201 201 205
229 230 232 235 240 237 233 232 234 239 243 249 240 232 230 236 241 239 237 238 244 246 245 247 251 248 227 246 251 244 227 226 235 233 236 231 234 231 232 236 241 208 153 195 215 251 241 189 210 228 233 205 211 214 210 204 206 206 204 201 199 198 200 203 206 206 203 202 200 201 201 201 202 206
229 229 228 232 238 239 233 231 229 230 236 240 245 245 240 233 238 239 233 224 230 235 235 243 249 255 245 244 247 247 234 229 236 233 238 237 237 243 262 272 235 207 196 195 192 244 244 179 208 229 228 208 216 218 211 203 204 204 202 200 199 198 199 201 203 202 202 202 198 198 199 202 205 205
233 230 228 229 236 240 237 234 223 224 231 238 245 246 247 248 244 240 226 224 225 228 231 235 242 247 247 243 246 244 241 241 243 250 252 256 251 250 249 252 226 215 183 203 212 238 248 183 208 227 211 214 224 223 217 208 202 201 201 200 199 199 198 199 200 199 200 199 196 195 197 202 204 204
235 232 229 228 236 239 239 235 223 222 219 238 242 246 251 250 250 250 231 220 223 227 230 234 238 244 248 250 250 250 247 245 245 246 252 248 226 229 244 251 227 215 208 221 218 239 258 234 210 232 227 221 225 220 223 222 205 203 201 200 201 198 198 197 197 196 197 195 194 194 195 199 203 205
239 237 233 230 232 236 240 234 224 220 212 232 239 246 253 257 255 253 239 245 230 226 231 233 238 242 246 249 252 253 253 250 243 237 249 253 229 231 233 247 231 243 230 235 205 227 241 250 129 251 346 49 258 249 236 219 213 209 206 202 200 199 197 196 195 194 194 193 194 192 193 198 200 191
239 242 239 232 231 234 238 235 228 222 211 229 235 241 249 260 264 257 247 248 250 240 235 247 250 257 255 255 255 256 253 251 247 237 244 257 252 243 237 237 242 256 250 233 187 214 241 223 187 197 179 220 215 202 211 210 206 196 199 203 205 202 196 196 192 193 193 192 191 190 193 199 183 184
237 236 241 238 231 232 237 239 235 229 215 226 241 244 251 258 266 263 252 249 249 259 256 253 234 243 250 253 254 253 257 253 239 236 235 241 244 245 243 231 226 236 247 233 166 210 233 202 227 194 205 217 235 212 195 207 203 195 190 192 192 204 199 195 196 194 191 192 190 190 193 194 176 180
238 238 234 239 234 230 232 235 241 246 241 234 244 247 250 246 257 302 295 283 282 273 269 265 264 263 265 259 252 253 253 251 246 237 230 234 236 237 243 240 232 243 248 235 165 199 223 207 221 194 214 215 228 209 217 202 196 196 191 184 191 186 179 189 188 192 199 194 192 190 194 187 182 179
234 236 234 237 239 243 246 244 241 237 237 235 227 244 249 275 302 298 269 296 286 278 278 275 272 268 265 270 267 264 262 259 255 250 241 231 231 231 232 234 235 243 245 222 174 208 223 225 211 205 206 205 230 202 150 199 200 197 186 190 188 175 177 176 180 186 179 180 195 194 195 187 185 189
231 231 234 234 110 89 67 79 104 171 211 208 225 243 255 259 267 285 278 275 279 274 274 274 271 270 266 270 272 272 274 271 268 266 256 249 239 235 236 233 234 239 243 239 197 213 219 234 208 205 210 211 219 199 197 196 214 122 178 194 191 180 178 168 175 184 178 177 190 181 193 192 189 194
227 202 166 105 94 98 209 238 229 217 201 229 239 238 245 254 263 258 271 266 263 271 272 270 271 272 272 269 267 269 273 277 279 276 273 268 258 252 247 239 237 238 241 241 229 217 220 229 223 213 213 211 215 199 206 174 152 179 184 200 196 180 172 170 179 177 167 163 160 166 180 184 189 181
100 103 128 141 147 236 247 253 258 244 233 237 249 257 261 257 239 228 239 259 262 267 269 270 273 276 276 276 279 284 284 284 285 281 279 273 268 261 256 251 243 239 238 238 236 227 222 225 225 217 216 218 214 206 189 200 185 187 187 166 184 187 174 179 170 163 157 157 168 169 186 188 184 179
73 81 122 142 151 145 130 97 85 56 43 329 304 300 296 208 217 225 244 272 268 273 280 281 283 283 287 284 286 290 291 289 282 283 282 285 280 274 270 267 258 246 243 240 236 232 226 225 225 219 220 218 209 200 201 200 199 192 179 183 167 133 174 164 162 158 153 159 164 174 183 184 188 166
209 110 104 96 106 97 99 108 122 106 45 52 53 27 2 340 312 286 263 256 267 271 273 277 276 281 282 287 288 284 285 280 279 278 285 288 284 283 276 270 269 262 246 238 234 231 226 223 219 215 223 219 206 204 202 198 188 176 185 178 159 171 167 164 156 145 153 146 150 162 159 176 184 182
121 114 100 85 81 94 84 78 86 71 47 34 336 325 274 264 256 262 260 262 256 257 257 269 276 279 282 284 284 285 282 281 282 285 282 281 282 280 282 276 270 267 262 244 235 232 233 231 227 221 218 209 206 207 205 197 193 184 177 181 179 160 149 153 141 143 135 126 132 175 181 182 176 174
105 107 103 100 84 69 76 59 38 19 5 358 338 297 314 307 290 268 245 262 271 274 278 273 278 283 286 283 282 282 280 278 280 282 280 275 275 279 269 268 273 275 272 264 246 238 234 237 230 225 216 211 205 198 195 198 194 174 169 160 142 140 154 147 143 139 130 135 166 164 179 193 178 171
119 114 100 79 73 56 43 42 25 7 1 350 343 344 331 324 318 325 329 316 293 283 277 284 287 289 291 290 288 280 273 278 274 274 272 279 276 275 275 272 270 267 268 269 265 250 235 228 223 226 229 231 243 217 194 182 176 174 167 160 150 147 142 137 142 143 150 163 158 156 170 187 203 182
86 100 90 87 82 79 72 55 26 3 356 349 340 334 330 333 333 314 290 280 280 286 290 288 288 290 293 288 286 285 284 287 288 288 278 270 272 267 270 270 268 262 262 265 261 254 245 238 229 232 13 90 112 54 23 151 161 152 148 139 141 137 140 136 131 137 139 133 142 156 167 174 189 195
77 80 94 81 72 83 67 40 18 9 349 334 331 323 323 317 308 301 296 296 297 294 292 298 299 297 290 292 292 293 292 293 295 296 298 292 284 275 263 260 265 268 264 262 265 260 254 242 220 194 174 151 115 65 5 29 112 156 147 147 139 131 120 121 133 138 137 137 146 152 167 180 191 183
94 82 90 92 97 83 53 19 340 333 326 323 303 292 290 302 305 297 295 294 294 295 300 297 292 293 298 302 304 298 297 301 305 306 303 301 296 288 281 276 269 268 265 266 261 257 240 244 235 202 184 175 169 145 80 42 61 34 151 134 126 123 127 126 131 135 136 134 141 162 166 163 184 195
110 108 101 102 89 75 14 346 321 300 290 273 274 281 281 277 283 291 299 308 313 320 313 303 296 302 309 308 306 308 312 315 313 310 311 312 309 304 295 287 284 276 270 264 265 256 224 227 205 190 182 175 150 129 117 76 78 40 41 113 117 115 117 130 133 137 129 127 153 163 129 143 173 194
109 121 118 129 135 155 185 229 260 256 258 262 273 278 280 286 292 300 310 313 315 310 304 302 310 316 312 308 307 312 318 323 322 321 323 325 319 308 306 301 294 300 306 310 346 343 207 208 179 151 358 175 162 153 133 125 107 104 71 80 116 122 145 145 135 130 133 141 123 98 61 53 69 79
124 125 146 161 201 197 209 222 243 256 276 281 278 277 285 294 303 308 316 321 316 305 296 303 313 314 313 312 315 316 322 323 320 323 327 331 336 334 336 339 1 5 31 16 19 31 36 63 84 103 98 85 80 85 97 97 102 95 104 113 127 136 142 137 136 144 148 152 136 134 131 113 123 333
154 143 164 186 178 182 189 250 301 304 293 278 276 274 282 292 301 308 318 315 305 307 314 323 326 316 312 317 321 327 333 333 332 333 335 334 339 345 352 357 24 36 58 49 39 54 61 87 110 113 112 122 125 122 116 125 132 140 128 118 107 129 139 138 140 147 143 144 145 148 151 162 147 139
152 158 215 227 128 147 43 353 326 297 281 282 292 312 318 312 304 306 306 301 302 308 316 319 320 313 314 322 328 342 347 337 337 340 343 352 357 0 6 12 16 14 34 42 40 44 24 31 70 74 76 75 62 82 91 103 110 114 117 120 119 122 145 145 151 141 151 144 140 131 113 63 75 130
117 175 287 346 76 80 40 335 295 292 299 310 324 325 317 316 317 320 314 313 316 323 319 315 309 304 305 314 336 344 344 345 347 344 353 12 15 13 16 22 25 26 33 42 43 41 32 36 51 67 72 70 68 87 103 109 110 111 112 116 118 113 100 95 93 93 130 171 165 160 162 152 137 178
19 4 350 18 61 66 68 301 313 319 331 335 328 317 315 312 313 313 312 312 318 320 314 305 302 305 306 316 332 357 3 355 348 353 4 7 17 28 34 32 34 42 39 38 42 35 33 39 37 61 73 79 92 96 105 110 111 114 119 123 128 131 132 118 87 75 92 143 284 39 143 156 171 181
17 12 2 32 86 78 69 4 2 353 352 340 331 324 318 310 306 311 316 319 315 314 309 302 304 304 304 315 354 13 358 355 354 3 11 17 18 26 31 37 48 47 43 34 51 41 35 43 33 45 66 63 78 104 111 116 119 120 118 118 127 136 141 147 148 153 153 157 24 26 235 99 73 101